Wind_Speed
3 2 2 2 1 1 2 3 2 2 2 2 3 3 3 3 3 3 3 3 3 3 2 3 3 4 4 5 5 4 4 3 3 3 3 3 3 3 3 3 3 3 3 3 3 3 4 4 4 4 4 4 5 5 6 6 6 7 7 7 7 6 6 6 5 5 4 4 4 4 4 4 4 5 5 5 5 5 5 6 6 6 6 6 6 6
3 2 2 2 1 1 2 3 3 2 2 2 2 2 2 2 2 2 2 3 3 2 2 2 3 3 3 4 5 4 3 2 2 2 2 2 2 2 2 2 2 3 3 3 3 4 4 4 4 4 5 5 5 5 5 5 6 6 7 7 6 6 6 5 5 4 4 3 3 4 4 4 4 5 5 5 5 5 5 6 6 6 6 7 7 6
2 1 1 1 1 1 1 2 2 2 1 1 1 1 0 1 1 1 1 2 2 2 2 2 3 2 2 3 4 4 2 2 2 2 2 2 1 1 1 2 2 3 3 4 4 5 5 5 6 6 6 6 6 6 6 6 6 6 6 6 6 6 6 5 5 4 4 4 3 4 4 4 5 5 5 5 5 5 6 6 7 7 7 7 7 7
3 2 2 1 1 1 1 1 2 1 1 1 2 3 3 2 2 2 2 2 2 2 2 3 3 2 2 2 4 4 3 2 1 1 1 0 1 1 2 2 3 4 4 5 5 6 6 7 7 7 8 7 7 7 7 7 6 6 6 6 6 6 6 6 5 5 5 4 4 4 4 4 5 5 5 6 6 6 6 7 7 8 8 8 8 8
3 3 2 2 2 1 2 2 1 1 3 3 3 3 3 3 2 2 2 2 2 2 2 2 2 2 1 2 4 5 5 4 3 3 2 2 2 3 3 4 4 5 6 6 7 8 8 8 9 9 10 10 10 10 9 9 8 7 7 6 6 6 6 6 6 6 5 5 5 5 5 5 5 5 6 6 6 6 7 7 8 8 8 9 9 9
3 3 3 3 2 2 2 1 1 2 3 2 2 1 1 1 2 2 2 1 1 1 1 1 1 1 1 3 5 6 6 6 6 6 5 5 5 5 5 6 6 7 8 8 9 10 11 11 12 12 13 13 13 12 12 11 10 9 9 7 7 7 7 7 6 6 6 6 6 6 6 6 6 6 6 6 7 7 7 8 8 9 9 9 9 9
3 3 3 3 2 1 0 2 2 2 1 1 1 1 1 1 1 1 0 0 0 1 1 1 1 1 1 3 5 6 6 6 7 7 7 7 7 7 7 7 8 9 10 11 12 13 14 14 15 15 15 15 15 14 13 13 12 11 10 9 8 8 7 7 7 7 6 6 6 6 6 7 7 7 7 7 7 8 8 9 9 9 9 9 9 8
4 4 3 3 2 1 2 2 2 2 1 1 1 1 1 1 1 1 1 1 1 1 1 1 1 1 1 2 3 3 3 3 4 4 5 5 6 7 8 10 11 12 13 14 15 15 16 16 16 17 16 16 15 15 14 14 13 13 12 10 9 8 8 8 7 7 7 7 7 7 7 7 7 8 8 8 8 9 9 9 9 9 9 8 8 8
5 4 4 4 3 3 2 2 2 2 2 1 0 0 1 1 1 1 1 1 1 1 1 1 1 1 1 2 2 2 3 4 4 5 6 7 9 10 12 14 15 15 16 16 16 16 17 17 17 17 17 16 16 15 15 14 14 13 12 11 9 8 8 8 8 8 7 7 7 8 8 8 8 9 9 9 9 9 9 9 9 8 8 8 7 7
5 5 4 4 3 3 3 3 2 2 2 1 0 0 0 1 1 2 2 1 0 1 1 1 1 2 3 3 3 4 5 6 7 8 10 11 13 14 15 16 16 16 16 16 16 16 16 16 16 16 16 16 15 14 14 14 14 13 12 10 9 9 8 8 8 8 8 8 9 9 9 9 9 10 10 10 10 9 9 8 8 7 7 7 7 7
4 4 4 3 3 3 3 3 2 1 1 1 1 1 1 0 1 2 2 2 1 1 2 2 3 4 5 5 5 6 7 8 8 9 10 11 12 13 14 14 13 13 13 14 14 14 14 14 14 15 15 14 13 13 12 12 12 12 11 10 10 9 9 9 9 9 9 9 9 10 10 10 10 10 10 9 9 9 8 8 7 7 7 7 7 7
4 4 4 3 3 2 2 2 1 1 0 1 2 2 1 1 0 1 3 3 3 3 3 4 5 6 7 7 8 8 9 9 9 9 9 10 10 10 10 10 10 11 12 13 13 12 11 11 12 14 14 13 11 10 10 10 10 9 9 8 8 8 8 8 9 9 9 9 9 9 9 9 9 9 9 8 8 8 8 7 7 7 7 7 7 7
3 3 3 3 3 3 2 2 2 1 1 1 1 1 2 2 1 2 3 4 4 4 5 6 6 7 7 8 9 9 9 9 9 9 9 9 9 9 9 9 10 11 12 13 13 11 9 10 11 12 12 11 10 9 8 8 7 7 6 6 6 6 6 6 7 7 7 8 8 8 8 8 8 8 8 8 7 7 7 7 7 7 7 7 7 7
3 3 3 3 3 3 2 2 2 2 1 1 1 1 2 2 2 3 3 4 4 4 5 6 7 7 7 8 9 9 9 8 8 8 8 8 8 8 9 9 10 11 13 13 12 10 9 9 9 9 9 8 8 8 8 7 7 6 5 5 4 5 5 5 6 6 6 6 6 7 7 7 7 7 7 7 7 7 7 7 7 7 7 7 7 7
3 3 3 3 3 3 2 1 1 1 1 1 1 1 2 3 3 3 3 4 4 5 5 6 7 7 6 6 7 8 8 8 7 7 8 8 9 8 8 9 10 11 12 12 10 9 8 8 8 8 7 6 7 8 9 9 9 8 7 6 5 5 6 6 6 6 6 6 6 6 7 7 7 7 7 7 7 7 7 7 7 7 8 8 8 8
3 3 3 3 3 3 2 1 1 1 2 1 1 1 2 2 3 3 3 4 5 6 6 6 7 6 5 4 5 7 7 7 7 7 8 9 9 8 8 9 10 11 11 11 9 8 7 7 7 7 7 7 9 11 12 12 11 10 9 8 8 7 7 7 7 6 6 6 6 6 7 7 7 7 7 7 7 7 8 8 8 8 8 8 9 9
2 2 2 2 2 2 2 1 1 1 1 0 1 1 1 2 2 3 3 4 5 5 5 5 5 5 4 3 4 7 8 8 8 8 9 10 9 8 8 10 10 11 11 10 9 8 7 7 7 8 9 10 12 13 13 13 12 11 11 10 9 9 8 8 8 7 7 7 7 7 7 7 8 8 8 8 8 8 8 8 8 8 9 9 9 9
2 1 1 1 2 2 2 2 1 1 0 0 1 1 1 1 2 3 3 4 4 4 4 4 4 4 5 4 4 6 9 9 9 9 9 9 9 8 8 9 10 10 10 10 9 8 7 8 9 10 11 12 13 14 13 13 12 12 11 10 10 9 9 9 8 8 8 8 8 8 8 8 8 8 8 8 8 8 8 9 9 9 9 9 9 9
1 1 1 1 1 1 2 1 1 1 1 0 0 1 1 2 2 3 3 3 3 4 4 4 5 5 5 6 6 7 9 10 10 9 8 9 9 8 7 8 8 9 10 9 9 8 8 9 11 12 12 13 13 13 13 12 12 12 11 11 10 10 9 9 9 8 8 8 8 8 8 8 8 8 8 9 9 9 9 9 9 9 9 9 9 9
2 1 1 1 1 1 1 1 1 1 1 0 0 1 2 2 3 3 3 3 3 4 4 4 5 6 6 7 7 8 9 10 9 8 7 8 9 9 7 7 8 9 10 10 9 8 8 10 11 12 12 12 12 12 13 13 12 11 11 10 10 9 9 9 8 8 8 8 8 8 9 9 9 8 9 9 9 9 9 9 9 9 9 9 10 10
1 1 1 1 1 1 1 2 2 1 1 1 0 1 2 3 3 3 4 4 4 4 4 5 6 6 6 7 8 8 8 9 7 6 7 8 9 8 6 6 7 9 10 10 9 9 9 10 11 11 11 11 12 13 13 13 11 10 9 9 8 8 8 7 7 7 7 7 7 8 8 9 8 8 9 9 9 9 9 9 9 9 9 10 10 10
1 1 2 2 2 1 2 2 1 1 1 1 1 1 2 3 3 4 4 5 5 5 5 6 7 7 8 9 10 10 10 8 7 5 6 7 8 8 6 6 8 9 9 10 10 10 10 11 11 11 10 10 12 13 13 12 10 8 7 6 6 6 6 6 6 6 6 6 7 7 8 8 8 8 8 9 9 9 9 9 9 9 10 10 10 11
1 1 2 2 2 3 2 2 1 0 1 1 1 2 2 3 4 5 5 5 6 6 7 8 8 9 10 11 12 11 9 8 7 6 5 5 7 8 6 7 8 9 9 10 10 11 12 12 11 10 9 10 12 13 13 11 8 6 5 4 4 4 4 5 5 5 5 6 6 7 7 7 8 8 8 8 8 9 9 9 9 10 10 11 11 12
1 2 2 3 4 4 3 2 1 1 1 1 1 2 3 4 5 6 6 7 7 7 8 9 9 10 11 11 10 9 8 8 8 6 4 5 6 8 8 8 8 9 10 10 11 12 13 12 11 9 8 9 12 13 12 10 7 5 4 4 4 4 4 5 5 5 6 6 6 7 7 7 7 8 8 8 9 9 9 10 10 11 11 12 12 13
2 2 3 3 4 5 4 3 2 2 2 1 1 2 4 5 5 6 7 7 8 8 8 8 8 9 9 8 8 7 7 9 8 6 4 5 6 8 8 8 8 9 10 11 12 13 13 12 10 8 7 8 10 12 12 10 7 6 6 6 6 7 7 7 8 8 8 8 8 9 9 9 9 9 9 10 10 10 11 11 11 12 12 12 13 13
4 4 4 4 5 5 5 5 5 5 4 4 3 4 4 5 6 6 7 7 7 7 7 7 8 8 8 7 6 5 6 7 8 6 5 4 6 8 9 8 8 9 10 12 13 13 13 12 10 8 6 7 9 11 11 9 8 6 6 7 8 8 9 10 10 10 10 10 11 11 11 11 11 11 11 11 12 12 12 12 13 13 13 13 14 14
6 6 6 6 6 6 7 7 8 8 8 7 7 7 7 6 6 6 7 7 7 7 7 7 7 7 7 6 5 5 5 6 6 6 5 4 5 7 8 8 8 9 10 12 13 13 12 11 9 7 6 7 7 8 9 9 9 8 8 8 9 9 10 10 11 11 12 12 12 12 12 13 13 13 13 13 13 13 13 14 14 14 14 14 15 16
7 7 8 8 8 9 9 9 10 10 10 9 9 9 9 8 7 7 7 7 6 6 7 7 6 6 6 5 5 5 5 5 6 6 6 4 5 6 8 8 8 9 10 12 13 14 11 9 8 7 7 7 7 7 8 8 9 9 9 10 10 10 11 11 10 11 11 12 13 13 13 14 14 14 14 14 15 15 15 15 14 14 15 15 16 16
7 7 8 9 9 9 9 10 10 10 9 9 10 10 10 9 8 8 8 7 6 6 7 7 6 6 6 6 6 7 7 6 7 8 7 5 5 7 7 7 7 8 10 11 12 12 9 6 5 6 6 6 7 7 8 8 8 9 9 9 10 11 11 11 11 11 11 12 12 13 13 14 14 15 15 15 16 16 16 15 15 15 15 16 16 16
5 6 6 6 6 7 7 7 8 8 9 9 10 10 11 11 11 10 8 7 6 6 7 7 7 7 6 6 6 6 6 5 7 8 7 5 5 6 6 6 7 8 9 10 9 8 6 4 3 3 5 6 7 8 8 9 9 9 9 9 9 9 9 10 11 11 12 12 12 13 13 14 15 15 16 16 16 16 16 16 15 15 16 16 16 15
4 4 4 4 5 6 6 7 8 9 10 10 9 10 10 11 11 11 10 8 7 7 7 7 7 7 6 5 4 3 3 3 5 7 7 5 5 5 6 6 7 7 7 7 6 5 4 3 2 3 5 7 8 9 10 10 10 10 10 10 9 9 8 9 10 12 12 12 12 12 13 13 14 15 15 16 16 16 16 16 15 15 15 16 15 15
5 5 5 6 7 8 8 9 10 10 10 9 9 8 9 10 11 11 11 9 9 8 7 7 7 7 7 6 5 4 4 3 5 6 6 4 5 5 6 6 6 6 6 5 4 3 2 4 5 7 9 10 11 11 11 10 9 9 9 10 10 10 10 10 10 11 11 11 10 11 11 12 13 13 14 15 15 15 15 15 15 15 15 15 15 15
5 6 7 7 8 8 8 8 9 9 9 8 7 7 7 8 9 10 10 10 9 8 7 7 7 7 7 7 8 7 6 5 5 6 5 4 4 5 5 5 6 6 6 6 5 6 6 7 9 12 12 12 11 11 11 10 9 9 9 9 10 11 11 11 11 11 10 10 10 10 10 11 11 12 12 13 13 14 14 14 13 14 14 15 15 15
6 7 7 8 8 8 8 8 8 8 8 7 6 6 7 7 8 8 9 9 9 9 8 7 7 7 7 7 7 8 7 6 4 4 5 4 4 4 5 5 6 6 6 6 6 7 8 9 10 11 12 12 11 10 10 9 8 8 8 9 10 12 12 12 12 11 11 11 10 10 10 9 10 10 11 11 12 12 12 12 12 12 13 14 14 15
7 8 8 8 8 8 8 7 7 8 7 7 6 6 7 7 7 7 8 9 9 9 10 9 9 8 7 7 7 7 7 5 4 4 5 5 4 5 5 5 6 6 6 6 6 6 7 9 10 10 11 12 12 11 9 7 7 7 8 9 10 11 11 11 11 12 12 11 11 11 10 10 10 10 10 10 10 10 11 11 11 12 12 13 14 14
8 8 8 8 8 8 7 7 7 7 7 7 7 7 7 7 7 7 8 8 9 9 10 11 11 11 11 10 10 9 9 7 6 6 6 7 6 6 5 5 6 6 6 6 7 7 8 9 10 10 10 11 11 10 8 7 7 8 9 10 11 11 11 12 12 12 12 12 11 11 10 11 11 11 11 10 10 10 11 11 12 12 13 13 14 14
8 8 8 8 8 8 7 7 7 7 7 7 7 7 7 7 7 7 7 7 8 9 10 11 11 12 12 13 13 13 13 12 10 9 9 9 9 8 7 6 6 6 6 6 7 7 8 9 9 10 10 9 9 9 9 10 10 11 11 11 12 12 12 12 12 11 11 11 11 11 11 11 12 12 12 11 11 11 11 11 11 12 12 12 13 14
8 8 8 8 8 7 7 7 7 7 6 7 7 7 7 7 7 7 7 7 8 9 10 10 11 11 12 12 13 14 15 15 14 13 13 13 12 10 9 8 8 7 7 7 7 7 8 8 8 8 8 9 9 10 11 11 12 12 12 12 12 12 12 12 11 10 10 11 11 11 12 12 12 12 12 12 12 12 12 12 12 11 11 11 12 12
9 9 9 8 8 7 7 7 6 6 6 6 7 7 7 7 8 8 8 8 9 10 11 11 11 12 12 13 14 15 15 15 15 15 14 14 14 13 11 10 9 8 8 8 8 8 8 8 8 8 8 9 10 11 11 11 12 13 13 14 13 12 11 10 9 10 10 11 12 12 12 12 12 12 12 12 12 12 12 12 12 11 10 10 11 12
9 9 9 8 8 7 7 7 6 6 6 6 7 8 8 8 9 9 10 10 11 11 12 12 12 12 13 13 13 13 13 12 12 12 12 13 13 13 12 11 10 9 9 9 9 9 9 9 9 10 10 10 11 12 12 12 12 13 13 13 12 12 11 11 11 12 12 12 12 12 12 11 11 11 12 12 13 13 13 12 12 11 11 11 12 12
9 9 9 8 7 7 7 7 7 6 6 7 7 8 9 9 9 9 9 10 10 10 10 10 11 11 12 12 11 11 10 9 9 9 10 10 11 11 12 12 11 10 10 9 9 9 10 10 10 11 11 11 12 12 13 13 13 12 12 12 13 13 14 13 12 12 12 11 11 11 11 11 11 12 12 12 13 12 12 12 12 12 12 12 13 14
8 8 8 7 7 6 6 7 7 7 7 8 8 8 9 9 9 9 8 8 8 8 8 8 8 9 9 10 10 9 9 9 9 10 10 10 10 10 10 11 11 10 10 10 10 10 10 10 11 11 11 11 12 13 13 13 13 12 12 12 13 14 14 13 11 10 9 9 10 10 10 11 12 13 13 13 13 13 12 12 13 13 13 13 14 15
8 7 7 7 6 6 7 7 7 8 8 8 9 9 9 9 9 8 8 7 7 7 7 7 7 7 8 8 9 9 9 9 10 10 10 9 8 8 8 9 9 9 9 10 10 10 10 10 11 11 11 12 12 13 14 14 13 13 13 13 13 13 12 11 11 10 10 10 11 12 12 13 13 13 13 13 13 13 13 13 13 13 14 14 15 15
7 7 7 8 8 8 8 8 8 8 8 9 9 9 9 9 9 8 8 7 7 7 6 6 6 7 7 8 8 8 8 8 9 9 9 9 8 8 8 8 8 8 9 10 10 10 10 10 10 11 11 11 12 13 13 14 14 14 13 13 12 12 12 13 13 12 12 12 12 12 12 12 13 13 13 14 14 14 14 14 14 14 14 14 15 15
9 9 9 9 9 9 9 9 9 8 8 9 9 9 9 9 8 8 8 7 7 7 6 6 6 6 6 7 7 7 6 7 8 8 9 8 8 8 8 8 8 8 9 10 11 11 11 11 11 11 11 11 12 13 14 14 14 14 14 13 13 13 14 14 13 13 13 13 13 12 12 12 12 13 14 14 14 14 14 14 14 15 15 15 15 15
10 10 10 10 9 9 9 9 9 8 9 9 9 9 9 8 8 8 8 8 8 7 7 6 6 6 6 6 6 6 6 6 6 7 7 8 8 8 9 9 9 9 10 11 11 12 12 12 12 12 12 12 13 14 14 14 14 14 14 14 13 13 13 13 13 13 12 12 13 12 12 12 12 13 14 15 15 15 15 15 15 15 15 15 15 16
9 9 8 8 8 8 8 8 8 9 9 9 9 9 9 8 8 8 8 8 8 8 7 7 7 7 7 7 7 7 6 6 6 6 6 7 8 8 9 9 9 9 10 11 12 13 14 14 14 14 13 13 14 14 14 14 14 14 14 14 13 13 13 13 13 12 12 12 12 12 12 12 13 14 15 15 16 16 16 16 15 15 15 16 16 16
8 8 8 8 8 8 8 8 8 9 9 9 9 9 9 9 9 9 9 9 8 8 7 7 7 8 8 8 8 8 8 7 7 7 6 6 7 8 8 8 9 9 10 11 12 13 14 15 16 16 16 15 15 15 15 14 13 13 13 13 13 13 13 13 13 13 12 13 13 13 13 13 13 14 15 15 16 17 17 17 16 16 16 16 16 17
9 9 8 8 8 8 8 9 9 9 9 9 9 9 9 9 9 9 9 9 9 8 8 8 8 8 8 9 9 9 8 7 7 7 7 7 7 7 7 8 8 9 10 11 12 13 14 15 16 17 17 18 17 17 16 15 14 13 13 13 13 13 13 14 13 13 13 13 13 14 14 14 14 15 15 16 17 18 18 18 18 17 16 16 16 17
10 9 9 9 9 9 9 9 9 10 10 10 9 9 9 9 9 9 10 9 9 9 9 9 8 8 9 9 9 8 8 8 7 7 7 7 7 7 7 7 7 7 8 9 10 10 11 13 14 15 16 17 18 19 19 18 16 14 13 13 13 13 13 14 14 14 13 14 14 14 15 15 15 15 16 16 17 18 19 19 18 17 16 15 15 16
10 10 10 10 10 10 10 10 10 10 10 10 10 9 9 9 9 9 9 9 9 9 9 9 9 9 9 9 9 8 8 8 8 8 8 7 7 7 7 7 7 7 7 7 7 8 8 9 10 11 13 14 15 17 18 19 17 15 14 13 13 13 13 14 14 14 14 14 14 14 14 15 15 15 15 15 16 17 18 19 19 18 16 15 15 15
Wind_Direction
192 207 235 256 268 286 288 282 278 278 283 314 338 342 337 342 351 356 1 16 28 29 9 6 12 8 346 332 330 337 350 1 12 19 25 32 38 42 43 41 33 25 16 9 4 1 0 0 1 3 5 9 9 9 8 7 4 2 1 358 355 354 352 349 344 339 336 331 325 317 310 309 307 302 300 307 320 328 329 337 338 335 336 335 334 332
213 228 243 248 242 256 286 289 288 286 291 308 312 312 321 337 344 358 20 32 45 56 55 45 51 47 6 334 332 341 356 18 30 40 48 55 60 58 50 40 27 15 7 1 356 352 351 348 347 347 349 352 352 353 353 354 353 354 354 353 351 350 347 346 345 342 339 329 327 324 316 302 296 297 300 306 314 323 329 333 333 331 330 330 330 329
186 202 219 213 203 209 250 288 288 284 296 305 306 307 345 27 40 64 70 66 66 71 78 75 78 75 43 347 338 343 357 24 47 58 65 71 67 53 33 12 1 351 345 341 339 338 338 337 336 334 333 334 335 334 332 334 334 336 340 342 344 343 339 338 339 338 335 330 329 327 316 302 295 297 303 303 307 313 317 322 323 322 320 324 324 322
160 157 168 183 189 197 218 254 272 286 24 44 49 56 67 80 97 103 96 90 82 77 77 76 78 77 59 350 338 342 351 1 14 25 22 4 341 329 323 322 321 323 322 321 322 323 325 327 327 326 323 322 320 319 317 316 316 317 321 326 330 331 329 326 324 322 318 317 315 314 314 304 297 295 296 297 303 308 309 312 315 317 319 319 318 317
159 159 159 158 163 193 227 238 229 78 66 62 60 62 66 76 87 90 89 88 84 80 73 68 64 59 34 329 329 337 345 346 344 338 328 315 306 302 302 303 307 309 311 312 313 314 315 317 317 316 314 313 312 311 310 308 305 303 305 305 308 313 313 313 312 310 308 304 300 301 304 302 300 297 293 293 296 299 301 304 307 310 310 310 309 309
157 163 169 164 170 197 234 212 98 85 70 66 79 106 109 92 87 84 83 78 72 69 53 39 36 27 355 322 328 336 345 349 350 347 342 335 326 317 310 306 306 307 307 308 308 308 308 309 309 309 310 310 310 310 308 306 302 299 295 292 293 296 298 299 300 300 298 296 294 293 294 296 297 296 297 295 296 297 299 302 304 306 306 305 305 303
152 161 171 170 178 193 159 88 94 102 107 129 163 170 164 131 113 113 117 99 69 33 16 354 355 357 351 334 339 347 354 355 356 355 351 346 340 329 317 310 307 307 306 306 305 305 305 306 306 306 307 307 308 308 307 306 303 298 293 288 286 286 288 290 290 290 290 290 290 291 292 294 294 295 297 299 300 301 303 303 303 303 304 303 302 301
148 157 163 166 166 146 105 101 116 134 153 173 192 197 199 194 198 233 285 302 312 343 2 349 343 345 354 355 358 359 357 353 351 347 339 336 328 315 305 303 304 305 304 304 304 305 305 305 305 305 304 304 305 304 304 303 301 298 294 289 285 282 282 282 283 283 283 284 286 287 288 289 290 293 296 299 302 304 305 303 302 301 301 300 300 299
149 155 160 162 158 149 143 143 149 149 140 130 151 215 229 237 241 250 273 298 323 346 352 344 323 324 323 336 340 330 310 300 294 291 291 291 290 291 294 299 301 303 304 305 305 306 307 306 305 304 303 302 301 301 299 298 297 295 293 288 283 279 276 276 275 275 276 276 277 278 280 282 285 289 294 296 299 302 302 302 301 300 299 298 297 296
146 149 150 151 149 146 144 142 147 153 143 131 150 190 220 317 305 282 255 243 296 353 352 329 301 293 295 302 308 309 304 302 300 297 296 295 295 297 301 304 306 307 308 309 310 310 310 309 307 305 304 303 302 299 296 293 292 290 288 284 279 273 270 267 267 267 268 269 271 274 276 280 284 288 292 295 297 299 299 299 299 299 297 296 295 293
142 141 138 136 134 134 133 136 146 161 146 169 184 188 171 8 340 324 303 288 307 343 344 330 306 292 289 291 295 298 301 305 307 307 306 306 307 310 311 312 313 313 313 314 314 314 314 311 309 307 308 308 306 301 296 292 289 287 286 282 277 272 268 265 263 263 265 268 272 274 278 281 285 288 291 293 294 295 296 296 295 295 294 294 293 291
139 138 136 136 137 137 138 147 163 191 203 211 204 184 132 90 35 334 326 315 316 324 325 320 310 300 292 287 287 292 297 304 307 308 308 309 311 312 312 310 309 309 310 312 314 315 315 310 308 310 314 316 315 310 303 297 294 292 291 290 286 281 277 273 270 269 269 272 275 277 279 282 284 286 287 289 290 290 290 290 289 289 289 289 287 286
138 139 142 148 151 155 160 171 184 193 196 212 211 139 81 51 15 334 318 304 304 309 314 313 308 301 293 285 284 290 299 306 310 312 311 311 312 311 308 304 303 304 307 312 317 318 315 309 310 315 321 325 325 322 315 310 305 304 304 304 303 301 296 291 286 283 281 281 280 280 281 282 283 283 283 284 285 285 284 284 284 282 282 282 281 279
142 148 156 161 163 164 170 183 190 184 165 133 61 46 41 10 348 328 307 296 297 305 311 311 306 301 292 281 281 290 301 312 317 317 316 314 312 310 306 302 301 304 310 317 321 319 315 312 314 319 325 327 325 320 314 310 306 303 301 301 303 303 301 298 294 290 288 287 284 283 282 282 281 281 280 280 280 280 279 279 278 278 277 277 278 278
154 163 171 173 169 163 163 174 172 133 104 80 44 353 338 332 329 322 310 306 308 314 318 314 309 304 294 276 280 293 307 318 324 324 319 315 312 310 304 299 300 305 314 320 320 317 315 314 316 318 317 314 307 303 302 301 300 296 289 284 283 284 285 287 286 282 280 281 281 282 281 280 279 278 276 276 276 276 277 277 276 276 276 276 277 278
158 170 177 174 165 153 145 139 114 90 86 69 24 345 334 325 323 324 324 321 320 321 321 319 315 310 299 285 292 305 317 328 330 326 321 317 317 314 304 298 302 309 317 321 319 315 312 312 310 308 305 300 297 297 300 303 303 299 292 283 277 274 274 274 274 274 272 272 274 275 276 277 276 275 274 274 273 274 274 275 275 275 275 276 276 277
149 168 176 172 158 142 136 130 122 101 86 47 347 322 314 315 320 325 326 321 319 318 316 317 317 314 305 303 320 327 329 334 334 329 323 317 317 315 304 301 305 312 319 322 319 313 308 305 301 299 298 297 298 301 303 304 302 300 295 290 283 277 273 270 270 269 268 267 268 269 271 273 273 273 272 272 272 272 272 273 273 273 274 274 275 276
133 150 166 169 152 141 133 134 150 187 203 245 271 287 289 298 308 312 312 309 307 308 309 309 308 305 300 300 321 333 330 333 334 330 323 316 314 312 306 303 307 314 319 320 317 310 304 298 296 297 300 303 304 305 304 302 300 297 294 292 288 284 279 274 270 268 267 267 267 267 266 267 268 269 270 270 270 270 271 271 271 271 272 272 273 273
141 146 158 171 155 146 143 151 164 178 191 213 279 312 311 308 308 304 301 296 295 299 302 303 299 292 287 286 295 312 319 325 329 329 322 314 311 310 305 302 304 310 315 316 314 309 302 298 299 303 306 308 309 308 306 303 299 295 293 291 289 287 285 281 276 271 268 268 269 270 269 266 264 265 267 268 269 270 270 270 270 269 269 269 269 270
149 155 161 162 161 163 161 159 155 151 155 177 273 337 331 321 314 309 302 298 295 293 292 289 286 282 281 281 287 299 310 318 324 326 319 311 309 309 305 298 300 305 310 313 313 311 306 303 305 307 308 308 306 305 305 304 301 297 293 290 289 288 287 285 281 276 272 267 267 268 269 267 266 265 266 267 269 269 268 268 266 266 266 266 268 269
151 161 165 156 156 161 156 138 130 137 178 213 242 346 328 317 312 308 303 302 297 293 288 280 277 277 282 284 287 292 300 309 317 321 316 310 308 309 307 300 301 306 309 312 314 314 309 306 306 306 305 303 301 301 304 306 305 300 294 292 291 291 291 290 288 285 281 275 271 269 268 268 267 266 266 267 267 266 264 263 263 263 264 266 268 269
150 159 156 149 148 144 133 126 124 142 259 275 319 345 313 308 302 300 297 297 294 291 285 281 279 280 283 284 284 286 290 292 295 304 311 307 303 305 311 306 306 308 307 309 312 312 310 307 306 305 303 298 296 300 306 310 309 304 300 299 299 299 301 302 301 297 291 286 280 275 272 270 267 265 264 264 263 262 261 261 262 264 265 267 269 271
150 153 149 153 158 161 157 151 155 271 309 323 323 304 289 287 285 285 286 287 286 285 284 283 283 283 283 282 284 285 283 276 277 289 304 298 297 302 310 309 308 306 303 305 309 311 311 310 309 307 302 294 294 300 309 313 312 305 301 298 296 295 295 294 294 290 284 280 276 272 268 264 260 259 259 259 259 261 261 262 264 266 268 270 271 272
152 155 158 173 184 185 176 173 195 254 284 307 302 290 282 280 277 275 275 276 278 279 281 283 284 284 283 283 284 281 270 263 269 282 294 289 291 298 304 308 306 303 301 304 308 311 312 312 311 309 302 293 295 302 311 314 308 294 283 275 268 262 258 257 259 259 256 257 255 252 251 250 251 252 253 255 258 260 262 264 266 269 270 272 273 273
159 161 173 193 202 199 189 190 204 220 229 243 280 296 295 290 284 279 276 274 273 274 277 280 281 281 282 282 281 272 256 258 266 275 280 284 289 295 300 304 304 301 300 304 309 313 313 311 310 307 300 293 296 304 314 317 310 293 279 271 265 259 257 256 254 252 250 249 248 246 246 247 250 252 253 255 257 260 263 265 267 269 271 273 273 274
183 180 183 196 206 208 208 213 222 234 244 256 268 280 289 291 287 283 277 272 268 267 268 270 273 277 282 283 280 270 255 261 269 273 270 279 290 296 301 305 304 303 303 305 310 313 311 306 304 302 295 290 296 307 321 329 327 314 299 290 284 280 276 273 270 267 264 262 259 257 254 253 254 255 257 259 261 263 264 266 267 269 271 272 273 273
206 207 211 217 223 228 235 242 249 257 263 268 272 274 276 280 284 281 273 266 262 262 263 267 273 280 284 284 281 275 267 266 268 268 266 277 290 296 301 305 307 307 307 308 310 311 308 302 297 294 290 290 301 315 329 337 339 334 325 316 309 302 296 291 286 280 275 272 269 266 264 262 261 261 261 263 264 265 266 267 269 270 271 272 273 273
227 230 237 243 250 256 262 267 270 272 273 274 274 273 269 267 267 266 263 263 262 263 263 266 272 280 285 286 287 286 282 272 259 254 263 285 292 291 298 306 312 313 314 312 313 314 311 300 289 286 290 302 318 329 333 333 331 329 324 319 316 312 308 303 296 289 283 278 274 271 269 267 266 265 265 265 266 267 267 268 270 271 272 272 273 274
251 257 262 267 270 274 277 278 279 278 277 276 273 269 263 256 249 248 254 259 263 264 263 263 266 271 278 283 288 288 282 266 249 250 266 289 293 289 299 308 315 320 322 320 320 321 317 299 282 284 300 318 331 335 331 324 318 314 311 309 308 309 309 307 302 297 291 286 280 277 274 272 270 269 269 269 269 269 269 269 270 271 271 272 273 274
261 267 271 274 276 278 280 280 281 281 280 278 274 268 260 252 243 239 245 252 256 257 258 259 262 266 272 281 286 284 273 253 247 256 275 290 291 291 302 310 316 322 327 328 327 326 322 305 287 300 325 334 333 328 322 316 311 307 305 306 307 308 308 307 305 303 300 296 290 285 281 278 276 274 273 273 272 272 272 271 271 271 271 271 272 272
248 249 254 258 263 268 270 274 278 282 285 283 278 269 260 251 242 236 236 239 242 245 248 253 257 260 264 270 277 277 267 255 263 273 286 289 284 286 300 308 312 317 326 333 332 326 323 318 315 325 332 327 321 316 314 312 309 307 306 308 310 311 309 307 307 306 306 303 299 294 290 286 283 281 279 277 276 275 274 273 271 269 269 269 269 269
248 250 255 262 268 272 273 275 279 284 288 288 283 273 261 251 241 234 230 230 231 234 239 246 251 254 255 253 253 260 273 280 288 292 294 287 278 282 293 300 304 308 314 320 313 302 298 301 305 309 313 314 313 313 313 311 308 306 305 306 308 310 312 313 312 310 309 305 301 296 293 291 288 286 284 282 280 278 277 274 271 268 266 266 266 266
256 261 267 273 275 276 275 275 277 282 286 286 281 270 258 249 241 234 228 225 225 227 230 239 246 251 252 250 251 255 264 272 284 292 297 289 280 281 288 293 297 300 304 302 292 280 275 283 294 302 307 309 311 312 312 311 307 303 303 304 307 311 316 318 317 314 310 306 301 297 295 293 291 290 289 288 286 283 280 277 272 268 265 263 264 265
264 268 272 275 275 272 270 269 270 273 277 275 266 253 246 243 238 232 227 223 221 221 223 229 237 245 250 252 252 253 256 259 267 277 287 284 281 281 286 290 292 296 300 298 292 284 279 283 291 299 304 307 309 309 310 309 307 304 303 306 309 313 316 318 316 313 309 307 305 303 301 299 297 295 293 291 290 288 285 281 276 270 265 263 263 264
269 272 272 272 270 268 265 264 265 267 267 261 250 240 235 233 233 231 228 225 223 222 222 223 227 233 239 247 251 251 249 248 254 265 273 274 275 279 285 284 286 290 295 294 292 291 289 288 292 297 303 307 308 308 309 310 309 307 305 307 309 312 312 311 309 307 305 304 304 304 304 303 301 298 295 293 291 288 285 282 278 273 268 264 263 262
270 272 272 270 268 265 262 262 263 262 257 249 239 231 228 227 229 232 235 234 233 232 231 231 231 233 235 237 240 243 243 244 249 260 269 270 272 275 278 277 279 284 286 287 288 289 291 293 295 297 300 302 304 306 309 310 310 307 307 307 307 306 305 305 304 303 302 301 300 299 299 300 299 299 298 296 293 288 285 282 279 277 273 269 265 263
270 272 271 270 267 263 260 260 260 257 249 239 231 227 226 225 226 229 235 240 242 243 244 245 245 246 245 245 244 244 243 244 247 254 261 265 267 270 270 270 272 275 275 279 282 286 289 293 296 297 297 295 297 302 307 310 310 310 308 307 306 305 304 305 306 304 302 300 298 297 296 297 297 298 299 300 297 293 289 286 284 282 280 276 271 267
271 271 271 269 266 263 259 257 255 251 242 234 227 224 224 225 225 226 231 238 244 248 250 253 256 257 257 256 255 254 252 252 252 253 256 259 262 264 264 266 267 266 265 267 272 279 285 289 293 296 296 295 295 298 303 307 309 308 307 306 306 305 305 307 308 306 302 298 296 295 294 294 295 296 297 298 298 296 293 291 290 288 285 282 279 276
268 269 269 268 265 262 258 255 251 246 238 230 225 223 224 227 229 232 234 239 244 249 253 255 258 259 260 260 261 262 263 262 261 260 259 258 258 258 258 260 262 263 262 262 263 267 272 276 281 287 292 296 298 299 302 303 304 305 306 308 307 306 306 307 306 303 299 296 295 294 293 293 293 293 293 293 294 293 292 292 292 290 287 285 284 282
266 266 266 265 263 259 255 251 248 243 236 230 229 229 230 233 236 240 243 245 249 253 256 259 261 263 264 265 267 269 270 270 270 268 265 263 261 259 257 256 257 259 262 261 260 260 262 266 271 277 282 289 294 297 300 300 301 303 306 307 307 306 305 305 302 299 298 298 297 297 296 296 294 292 290 291 291 291 290 290 289 287 285 283 283 284
265 265 265 264 261 257 252 249 245 239 235 232 233 235 237 239 243 247 251 254 255 257 258 260 263 267 271 274 276 278 278 279 279 278 276 274 270 265 260 257 256 257 258 259 259 259 259 263 268 273 277 283 288 292 294 295 297 300 302 301 300 300 301 301 301 301 302 301 300 299 298 296 294 292 291 291 290 289 288 287 285 284 282 280 280 280
264 264 263 262 260 257 254 250 245 241 237 236 237 238 239 242 245 247 251 254 254 253 253 254 258 263 268 272 276 279 280 281 282 283 283 281 278 272 265 258 254 252 253 256 258 260 260 263 266 271 275 280 285 289 291 292 294 296 296 295 296 299 301 301 300 301 302 300 297 295 294 294 293 292 291 290 289 288 285 283 281 280 279 278 277 276
263 263 261 259 257 256 254 253 250 246 242 240 238 238 238 241 244 246 247 248 247 247 246 247 251 257 263 266 268 268 268 271 275 278 279 281 280 277 271 263 254 248 246 251 256 260 263 264 265 268 272 277 280 283 286 289 291 292 292 292 294 297 298 298 300 301 299 296 294 293 293 293 293 292 291 290 288 286 284 282 280 279 278 276 276 275
264 262 259 258 258 259 259 257 254 249 244 240 239 238 239 241 244 246 246 246 246 246 247 247 251 258 262 265 265 262 257 258 262 268 273 279 282 282 278 271 260 249 243 245 252 258 264 266 267 268 271 274 276 277 281 284 287 289 290 289 288 286 285 290 295 297 297 295 293 293 293 293 293 294 293 291 289 288 286 284 283 281 280 279 277 276
259 260 261 262 264 265 264 260 255 250 244 241 240 240 239 242 243 244 243 245 246 248 248 248 252 257 258 259 260 259 253 248 249 255 262 268 273 277 277 272 265 256 249 248 251 255 259 264 267 271 273 274 273 273 276 280 283 285 286 287 285 282 282 285 289 291 292 292 291 291 292 293 294 294 293 291 290 289 288 287 286 285 283 282 280 278
261 264 266 268 268 265 261 258 254 250 245 242 241 240 240 241 241 240 241 243 245 246 246 245 245 249 253 254 255 252 247 242 241 242 245 248 253 260 268 271 270 265 260 258 257 258 259 261 265 269 273 275 274 272 272 274 277 280 282 284 285 284 284 285 285 286 287 288 289 289 290 292 293 292 290 290 289 289 287 286 285 285 284 283 281 279
262 265 266 266 264 261 258 256 252 247 243 241 240 239 238 237 237 238 240 242 242 244 244 243 242 244 248 251 251 247 244 241 240 239 239 241 242 246 255 262 265 265 264 263 263 263 263 264 264 266 268 270 272 272 272 271 271 274 277 281 283 284 284 284 284 285 285 284 284 286 289 291 290 288 287 288 289 289 287 286 285 284 283 283 282 280
258 259 259 258 256 255 254 251 246 243 240 238 237 237 237 236 236 237 238 239 239 238 238 238 239 241 245 248 248 246 243 241 241 242 241 241 241 242 245 251 256 260 261 263 265 266 267 267 266 263 261 261 264 268 270 270 269 269 272 276 279 280 281 282 283 284 284 282 282 284 287 286 284 283 284 286 287 287 287 286 286 285 283 282 281 280
254 252 251 249 249 248 248 245 242 238 236 236 235 236 238 238 237 236 236 235 234 234 234 235 236 239 243 245 246 245 242 241 241 242 242 241 240 241 242 246 251 257 263 266 270 272 272 271 268 263 258 255 256 259 263 265 266 267 268 271 273 275 278 280 283 284 284 284 285 287 287 283 281 280 280 281 282 284 286 286 286 285 283 282 281 279
252 249 245 243 242 242 242 241 239 237 235 234 235 236 239 238 237 236 235 234 233 232 233 233 235 238 242 245 245 243 241 240 241 242 241 239 238 240 242 246 252 260 267 273 274 274 275 275 272 268 262 257 254 254 255 258 262 265 267 268 269 272 275 278 282 284 285 285 285 286 286 284 282 280 278 276 278 281 284 285 285 285 284 283 282 280
249 246 244 241 239 239 239 239 239 237 236 235 234 236 236 236 235 234 234 233 232 233 234 234 235 237 241 243 244 243 240 239 239 240 240 238 236 237 240 244 250 257 266 274 278 280 280 281 280 277 271 261 255 253 253 253 256 260 264 267 269 271 274 277 281 284 285 284 284 284 284 282 280 277 274 273 275 280 283 285 285 285 286 285 284 282
Height
832 833 833 833 833 833 833 833 833 834 834 834 834 834 834 834 834 834 834 834 834 835 835 834 834 834 833 833 833 833 833 833 833 833 833 833 833 833 833 833 833 833 833 833 833 833 833 833 833 832 832 832 832 832 832 832 832 832 832 832 832 832 832 832 831 831 831 831 831 831 831 831 831 831 831 831 831 832 832 832 832 832 832 831 831 831
832 832 832 833 833 833 833 833 833 833 833 834 834 834 834 834 834 834 834 834 835 835 835 834 834 834 834 833 833 833 833 833 833 833 833 833 833 833 833 833 833 833 833 833 833 833 832 832 832 832 832 832 832 831 831 831 831 831 831 831 831 831 831 831 831 830 830 830 830 830 830 831 831 831 831 831 831 831 831 831 831 831 831 831 831 831
832 832 832 832 833 833 833 833 833 833 833 833 833 834 834 834 834 834 834 835 835 835 835 834 834 834 834 833 832 832 833 833 833 833 833 833 833 833 833 833 833 832 832 832 832 832 832 832 831 831 831 831 831 831 831 831 831 831 831 831 831 830 830 830 830 830 830 830 830 830 830 830 830 830 831 831 831 831 831 831 831 831 831 831 831 831
832 832 832 832 833 833 833 833 833 833 833 833 833 833 833 834 834 834 834 835 835 835 834 834 834 834 834 833 832 832 832 832 832 832 832 832 832 832 832 832 832 832 832 832 831 831 831 831 831 831 830 830 830 830 830 830 830 830 830 830 830 830 830 830 830 830 830 830 830 830 830 830 830 830 830 830 830 830 830 830 830 830 830 830 830 830
832 832 832 832 833 833 833 832 832 833 833 833 833 833 834 834 834 834 834 834 834 834 834 834 834 834 833 833 832 832 832 832 832 832 832 832 832 832 831 831 831 831 831 831 831 831 830 830 830 830 830 830 830 830 829 829 829 829 829 829 829 829 829 829 829 829 829 829 829 829 829 829 830 830 830 830 830 830 830 830 830 830 830 830 830 830
831 832 832 832 833 833 832 832 832 833 833 833 834 834 834 834 834 834 834 834 834 834 834 834 834 834 833 832 832 832 832 831 831 831 831 831 831 831 831 831 831 831 831 830 830 830 830 830 830 829 829 829 829 829 828 828 828 828 828 828 828 828 828 829 829 829 829 828 829 829 829 829 829 829 829 829 829 829 829 829 829 829 829 829 829 829
831 831 832 832 832 832 832 832 833 833 833 834 834 834 834 834 834 834 834 834 834 834 833 833 833 833 833 833 832 832 832 831 831 831 831 830 830 830 830 830 830 830 830 830 830 829 829 829 829 828 828 828 828 827 827 827 827 827 827 827 827 827 827 827 828 828 828 828 828 828 828 828 828 828 828 828 828 828 828 828 828 829 829 829 829 829
831 831 832 832 832 832 832 833 833 833 833 834 834 834 834 834 834 834 833 833 833 833 833 833 833 833 833 833 832 832 832 832 831 831 831 831 830 830 830 830 830 830 829 829 829 828 828 828 828 827 827 827 827 826 826 826 826 826 825 826 826 826 826 826 826 827 827 827 827 827 827 828 828 828 828 828 828 828 828 828 828 828 828 828 828 828
831 831 832 832 832 833 833 833 833 833 833 833 834 834 834 834 834 834 833 833 833 833 833 833 833 833 833 833 832 832 832 831 831 831 831 830 830 830 829 829 829 829 828 828 828 827 827 827 826 826 826 826 825 825 825 825 825 825 825 825 825 825 825 825 825 825 826 826 826 826 826 827 827 827 827 827 827 827 827 827 827 827 827 827 827 827
831 831 832 832 832 832 833 833 833 833 833 833 833 833 834 834 834 834 833 833 833 833 833 833 833 833 833 832 832 832 831 831 830 830 830 830 829 829 829 828 828 828 827 827 827 826 826 826 825 825 825 825 825 824 824 824 824 823 823 823 824 824 824 824 824 825 825 825 825 825 825 826 826 826 826 826 826 826 826 826 826 826 826 826 827 827
831 831 832 832 832 832 832 833 833 833 833 833 833 833 833 833 833 833 833 833 833 833 833 833 832 832 832 832 831 831 830 830 830 830 830 829 829 828 828 828 827 827 827 826 826 826 825 825 825 824 824 824 823 823 823 822 822 822 822 822 822 822 823 823 823 823 824 824 824 825 825 825 825 825 825 825 825 825 825 825 825 826 826 826 826 826
831 831 831 832 832 832 832 833 833 833 833 833 833 833 833 833 833 833 833 833 833 833 833 832 832 832 831 831 831 830 830 830 830 829 829 829 828 828 828 827 827 826 826 825 825 825 825 824 824 823 823 822 822 822 822 821 821 821 821 821 821 822 822 822 822 822 823 823 823 824 824 824 824 824 825 825 825 825 825 825 825 825 825 825 825 826
831 831 831 832 832 832 832 832 833 833 833 833 833 833 833 833 833 833 833 833 833 833 832 832 832 831 831 830 830 830 830 829 829 829 828 828 828 828 827 827 826 826 825 825 824 824 824 823 823 822 822 822 821 821 821 821 821 821 821 821 821 821 821 822 822 822 822 822 823 823 823 823 823 824 824 824 824 824 824 825 825 825 825 825 825 825
831 831 831 831 832 832 832 832 832 832 833 833 833 833 833 833 833 833 833 833 833 832 832 832 832 831 831 830 829 829 829 829 828 828 828 828 827 827 827 826 825 825 825 824 824 823 823 823 822 822 822 821 821 821 821 820 820 820 821 821 821 821 821 821 821 821 822 822 822 822 822 823 823 823 823 823 823 824 824 824 824 824 824 825 825 825
830 831 831 831 831 831 832 832 832 832 832 833 833 833 833 833 833 833 833 833 833 832 832 832 831 831 831 830 829 829 829 828 828 828 828 827 827 827 826 825 825 824 824 824 823 823 823 822 822 822 822 821 821 821 820 820 820 820 820 820 820 820 820 820 821 821 821 821 821 822 822 822 822 822 822 822 823 823 823 823 823 823 824 824 824 824
830 830 830 831 831 831 832 832 832 832 832 832 833 833 833 833 833 833 833 833 832 832 832 832 831 831 830 830 829 828 828 828 828 828 827 827 826 826 826 825 824 824 824 823 823 822 822 822 822 822 821 821 821 820 820 820 820 820 820 820 820 820 820 820 820 820 820 820 821 821 821 821 821 821 822 822 822 822 822 822 823 823 823 823 823 823
830 830 830 830 831 831 831 832 832 832 832 832 833 833 833 833 833 833 833 833 832 832 832 832 831 831 830 830 829 828 828 828 827 827 827 826 826 825 825 825 824 823 823 823 822 822 822 822 821 821 821 820 820 820 819 819 819 819 819 819 819 819 819 819 819 819 819 820 820 820 820 820 821 821 821 821 821 821 821 822 822 822 822 822 823 823
830 830 830 830 831 831 831 832 832 832 832 832 832 832 833 833 833 833 833 833 832 832 832 832 831 831 831 830 830 829 827 827 827 827 826 826 825 825 825 824 824 823 823 822 822 822 822 821 821 820 820 820 819 819 818 818 818 818 818 818 818 818 818 818 818 818 818 819 819 819 819 820 820 820 820 820 820 821 821 821 821 821 821 822 822 822
830 830 830 830 831 831 831 832 832 832 832 832 832 832 832 832 832 832 832 832 832 832 832 832 831 831 831 830 830 829 828 827 827 827 826 826 825 825 825 824 823 823 822 822 822 821 821 821 820 820 819 819 818 818 817 817 817 817 817 817 817 817 817 817 817 817 817 818 818 818 819 819 819 819 820 820 820 820 820 820 820 820 821 821 821 821
830 830 830 831 831 831 831 831 832 832 832 832 832 832 832 832 832 832 832 832 832 832 832 832 831 831 830 830 830 829 828 827 827 826 826 825 825 825 824 824 823 823 822 822 821 821 820 820 820 819 819 818 818 817 817 816 816 816 816 816 816 816 816 816 816 816 816 817 817 817 818 818 818 818 819 819 819 819 819 819 820 820 820 820 820 820
830 830 830 830 831 831 831 831 831 831 831 831 831 832 832 832 832 832 832 832 832 832 831 831 831 830 830 830 829 828 828 827 827 826 826 825 825 824 824 824 823 822 822 821 821 820 820 820 819 819 818 818 817 816 816 815 815 815 815 815 815 815 815 815 815 815 816 816 816 816 817 817 817 818 818 818 818 818 818 818 818 819 819 819 819 819
830 830 830 830 830 831 831 831 831 831 831 831 831 831 832 832 832 832 832 832 831 831 831 831 830 830 830 829 828 828 827 827 827 826 826 825 825 824 824 823 823 822 821 821 820 820 820 819 818 818 817 817 816 815 815 815 814 814 814 814 814 815 815 815 815 815 815 815 815 816 816 816 816 817 817 817 817 817 817 817 817 817 818 818 818 818
830 830 830 830 830 830 830 830 830 830 830 831 831 831 831 831 831 831 831 831 831 831 830 830 830 829 829 828 827 827 827 826 826 826 826 826 825 824 824 823 823 822 821 820 820 820 819 818 818 817 817 816 815 815 814 814 814 814 814 814 814 814 814 815 815 815 815 815 815 815 815 815 816 816 816 816 816 816 816 816 816 816 816 816 816 817
829 830 829 829 829 830 830 830 830 830 830 830 830 831 831 831 831 831 831 831 830 830 830 830 829 829 828 827 827 826 826 826 825 825 826 825 825 824 823 823 822 822 821 820 820 819 818 817 817 817 816 816 815 814 814 814 813 813 813 813 813 813 813 814 814 814 814 814 814 814 814 814 815 815 815 815 815 815 815 815 815 815 815 815 815 815
829 829 829 829 829 829 830 830 830 830 830 830 830 830 830 830 830 830 830 830 830 830 830 829 829 828 827 827 827 826 826 825 825 825 825 825 825 824 823 823 822 821 820 820 819 819 818 817 816 816 816 815 815 814 813 813 813 813 813 812 812 812 812 812 812 812 813 813 813 813 813 813 813 814 814 814 814 814 814 814 814 814 814 814 814 814
828 828 828 828 828 829 829 829 829 829 829 829 829 830 830 830 830 830 830 830 829 829 829 829 828 828 827 827 826 826 825 825 825 825 825 825 824 823 823 822 822 821 820 819 819 818 817 816 816 816 816 815 815 814 813 813 812 812 812 812 812 812 812 812 812 812 812 812 812 812 812 812 812 812 813 813 813 813 813 813 813 813 813 813 812 812
827 827 827 828 828 828 828 828 828 828 829 829 829 829 829 829 829 829 829 829 829 829 829 828 828 827 827 826 826 826 825 825 825 824 824 825 824 823 823 822 822 821 820 819 818 817 817 816 815 815 815 815 814 814 813 812 812 812 812 812 812 811 811 811 811 811 811 811 811 811 811 811 811 811 811 811 812 812 812 811 811 811 811 811 811 810
827 827 827 827 827 827 827 828 828 828 828 828 828 828 828 828 828 828 828 828 828 828 828 828 827 827 826 826 826 826 825 825 825 824 824 824 824 823 822 822 822 821 820 819 817 816 816 815 815 815 815 814 814 813 813 813 812 812 812 811 811 811 810 810 810 810 810 810 810 810 810 810 810 810 810 810 810 810 810 810 810 810 810 810 809 809
826 826 826 826 826 827 827 827 827 827 827 827 827 827 827 827 827 827 827 827 828 828 827 827 827 827 826 826 826 825 825 825 824 823 823 824 824 823 822 822 822 821 820 819 817 816 815 815 815 815 814 814 814 813 813 813 812 812 812 811 811 810 810 810 809 809 809 809 809 809 809 809 809 809 809 809 809 809 809 809 809 809 808 808 808 807
825 825 826 826 826 826 826 826 826 826 826 826 826 826 826 826 826 826 826 827 827 827 827 826 826 826 826 826 825 825 825 824 823 823 823 823 823 823 822 822 821 821 820 819 817 816 815 815 815 815 814 814 814 813 813 812 812 812 811 811 810 810 810 809 809 808 808 808 808 807 807 807 807 807 807 807 808 808 808 808 808 807 807 807 806 806
826 826 825 825 825 825 825 825 825 825 825 825 825 825 825 825 825 825 825 825 826 826 826 826 826 826 825 825 825 825 824 824 823 823 823 823 823 822 822 821 821 821 820 820 819 818 816 815 815 815 814 814 814 813 813 812 812 811 810 810 810 810 809 809 808 808 807 807 807 806 806 806 806 806 806 806 806 806 806 806 806 806 806 805 805 805
825 825 825 825 825 825 825 824 824 824 824 824 823 823 823 823 823 824 824 825 825 825 825 825 825 825 825 825 825 824 824 824 823 822 822 822 822 822 822 821 821 820 820 820 820 820 818 816 815 814 814 814 813 812 812 811 811 811 810 810 809 809 809 808 808 807 807 806 806 806 805 805 805 805 805 805 805 805 805 805 805 805 805 804 804 804
825 825 825 825 824 824 824 824 823 823 823 823 822 822 822 822 822 823 823 823 824 824 824 825 825 825 824 824 824 824 824 824 823 822 822 822 822 821 821 821 821 820 820 820 820 820 819 817 815 814 813 813 813 812 811 811 811 810 810 809 809 808 808 808 807 807 806 806 805 805 805 805 804 804 804 804 804 804 803 804 804 804 803 803 803 803
824 824 824 824 824 824 823 823 823 823 822 822 822 822 822 822 822 822 822 822 823 823 823 824 824 824 824 824 823 823 823 823 823 822 821 821 821 821 821 820 820 820 820 820 819 819 818 817 816 815 813 812 812 812 811 811 810 810 810 809 809 808 807 807 806 806 805 805 805 804 804 804 804 804 803 803 803 802 802 802 802 802 802 802 802 802
824 823 823 823 823 823 823 823 822 822 822 822 821 821 821 821 821 821 821 821 822 822 822 822 823 823 823 823 823 823 823 823 823 822 821 821 820 820 820 820 820 820 820 819 819 818 817 817 816 815 814 812 811 811 811 811 810 810 809 809 808 808 807 807 806 805 805 805 804 804 803 803 803 803 802 802 802 802 802 801 801 801 801 801 801 801
823 823 823 822 822 822 822 822 822 821 821 821 821 821 821 821 821 821 821 821 821 821 821 821 821 822 822 822 822 822 822 822 822 821 821 820 820 820 820 820 819 819 819 819 818 818 817 816 815 815 814 813 812 811 810 810 810 810 809 808 808 807 807 806 806 805 805 804 804 803 803 803 802 802 802 801 801 801 801 801 800 800 800 800 800 800
822 822 822 822 822 821 821 821 821 821 821 821 820 820 820 820 820 820 820 820 820 820 820 820 820 820 820 820 820 820 820 820 820 820 820 820 819 819 819 819 819 819 819 818 818 817 817 816 815 815 814 813 812 811 810 810 809 809 808 808 807 807 806 805 805 805 804 804 803 803 802 802 802 801 801 801 801 800 800 800 800 799 799 799 799 799
822 821 821 821 821 821 821 820 820 820 820 820 820 820 820 820 820 820 820 820 820 820 819 819 819 819 819 819 819 819 819 819 819 819 819 819 818 818 818 818 818 818 818 818 817 817 817 816 815 814 813 812 812 811 810 810 809 808 808 807 806 806 805 805 805 804 804 803 803 802 802 802 801 801 800 800 800 800 799 799 799 798 798 798 798 798
821 821 821 820 820 820 820 820 820 820 820 820 819 819 819 819 819 819 819 819 819 819 819 818 818 818 818 818 818 818 818 817 817 817 817 817 817 817 817 817 817 817 817 817 816 816 816 816 815 814 813 812 811 810 810 810 809 808 807 806 805 805 805 804 804 804 803 803 802 802 801 801 800 800 800 800 799 799 798 798 798 797 797 797 797 796
820 820 820 820 820 820 820 819 819 819 819 819 819 818 818 818 818 818 818 818 818 818 817 817 817 817 817 817 816 816 816 816 816 816 816 816 816 816 816 816 816 816 816 816 816 815 815 815 815 814 813 812 811 810 810 809 809 808 807 806 805 804 804 804 803 803 802 802 801 801 800 800 800 800 799 799 798 798 798 797 797 797 796 796 796 795
819 819 819 819 819 819 819 818 818 818 818 818 818 818 817 817 817 817 817 817 817 817 816 816 816 816 816 815 815 815 815 815 815 815 815 815 815 815 815 815 815 815 815 815 815 815 815 814 814 813 813 812 811 810 810 809 808 808 807 806 805 804 803 803 803 802 801 801 801 800 800 800 799 799 799 798 798 797 797 797 796 796 796 795 795 795
818 818 818 818 818 818 818 818 817 817 817 817 817 817 817 816 816 816 816 816 816 816 816 816 816 815 815 815 814 814 814 814 814 814 814 813 814 814 814 814 814 814 814 814 814 814 814 814 813 813 812 812 811 810 809 808 808 807 807 806 805 804 803 802 802 801 801 801 800 800 800 799 799 798 798 797 797 796 796 796 795 795 795 794 794 794
817 817 817 817 817 817 817 817 817 817 816 816 816 816 816 816 816 816 816 816 816 816 816 815 815 815 815 814 814 814 814 813 813 813 813 813 813 813 813 813 813 813 813 813 813 813 813 813 812 812 811 811 810 810 808 807 807 806 806 805 805 804 802 801 801 801 800 800 800 799 799 798 798 797 796 796 795 795 795 795 794 794 794 793 793 792
817 817 816 816 816 816 816 816 816 816 816 816 816 815 815 815 815 815 815 815 815 815 815 815 815 815 814 814 814 813 813 813 813 812 812 812 812 812 812 812 812 812 812 812 812 812 812 811 811 811 810 810 810 809 808 807 806 805 805 805 804 804 802 801 800 800 800 799 799 798 798 797 797 796 795 795 794 794 794 793 793 792 792 792 791 791
816 815 815 815 815 815 815 815 815 815 815 815 815 815 815 815 815 815 815 815 815 815 815 815 815 814 814 813 813 813 813 813 812 812 812 811 811 811 811 811 811 811 811 811 811 811 811 810 810 810 810 809 809 808 807 806 805 805 804 804 803 802 801 801 800 800 799 798 798 797 797 797 796 796 795 794 793 793 792 792 792 791 791 790 790 790
815 815 815 815 815 815 814 814 815 815 815 815 814 814 814 814 814 814 814 814 814 814 814 814 814 814 813 813 813 812 812 812 812 812 811 811 811 810 810 810 810 810 810 810 810 810 810 810 809 809 809 808 807 807 806 805 805 804 803 803 802 801 800 800 799 799 798 798 797 797 796 796 796 795 794 793 792 792 791 791 790 790 790 789 789 788
814 814 814 814 814 813 813 814 814 814 814 814 813 813 813 813 813 813 813 813 813 813 813 813 813 813 812 812 812 812 812 811 811 811 811 811 810 810 810 810 810 810 810 810 809 809 809 808 808 808 808 807 806 805 804 804 804 803 802 801 801 800 800 799 798 798 798 797 796 796 796 795 795 794 793 792 791 790 790 790 789 789 788 788 787 787
812 812 812 812 812 812 812 812 812 812 812 812 812 812 812 812 812 812 812 812 812 812 812 812 812 812 811 811 811 811 811 811 810 810 810 810 810 810 810 810 810 810 809 809 808 808 807 807 807 807 806 806 805 804 803 802 802 802 801 801 800 800 799 798 797 797 796 796 795 795 795 795 794 794 793 792 790 790 789 788 788 787 787 787 786 785
811 811 811 811 811 811 811 811 811 811 811 811 811 811 811 811 811 811 811 811 811 811 811 811 811 811 810 810 810 810 810 810 810 810 810 810 809 809 809 809 809 809 809 808 808 807 806 806 805 805 805 804 803 802 801 801 801 800 800 800 799 798 798 797 796 796 795 795 795 794 794 794 793 793 792 791 790 788 787 787 786 786 786 785 785 784
810 810 810 810 810 810 810 810 810 810 810 810 810 810 810 810 810 810 810 810 810 810 810 810 810 810 810 809 809 809 809 809 809 809 809 809 809 809 809 809 808 808 808 807 807 806 805 805 804 803 802 802 801 801 800 799 799 799 799 799 798 797 797 796 795 795 795 794 794 793 793 792 792 791 791 790 789 787 786 785 785 784 784 784 784 783
808 808 808 808 808 808 808 808 808 809 809 809 809 809 809 809 809 809 809 809 809 809 809 809 809 809 808 808 808 808 808 808 808 808 808 808 808 808 808 808 808 808 807 807 806 805 805 804 802 801 800 800 800 799 799 798 798 798 798 797 797 796 796 795 794 794 793 793 792 792 791 791 790 790 790 789 787 786 785 784 783 783 783 783 782 782